Regional Weather Roundup
Issued by NWS

Home | Current Version | Previous Version | Graphics & Text | Print | Product List | Glossary On
Versions: 1 2 3 4 5 6 7 8 9 10 11 12 13 14 15 16 17 18 19 20 21 22 23 24 25 26 27 28 29 30 31 32 33 34 35 36 37 38 39 40 41 42 43 44 45 46 47 48 49 50
000
ASUS43 KMPX 072001
RWRMN
WEATHER ROUNDUP FOR MINNESOTA
NATIONAL WEATHER SERVICE TWIN CITIES/CHANHASSEN MN
300 PM CDT TUE JUL 07 2015


NOTE: "FAIR" INDICATES FEW OR NO CLOUDS BELOW 12,000 FEET WITH NO
SIGNIFICANT WEATHER AND/OR OBSTRUCTIONS TO VISIBILITY. N/A MEANS
CURRENT SKY AND/OR WEATHER CONDITIONS ARE NOT AVAILABLE.

MNZ060>063-068>070-072100-
   Twin Cities Metro

CITY           SKY/WX    TMP DP  RH WIND       PRES   REMARKS
TWIN CITIES    PTSUNNY   68  47  46 N8G16     30.14F
ST PAUL        PTSUNNY   69  48  47 E9        30.14F
CRYSTAL        PTSUNNY   71  46  40 N5        30.13F
BLAINE         PTSUNNY   70  48  46 N9        30.14F
LAKEVILLE      PTSUNNY   66  48  52 N6        30.15S
EDEN PRAIRIE   MOSUNNY   70  46  42 E5        30.13F
SOUTH ST PAUL  PTSUNNY   69  47  46 E6        30.14F
LAKE ELMO      FAIR      68  50  52 NE7       30.15F
$$
MNZ001>005-007-008-013>017-022>024-027-028-072100-
   Northwest Minnesota

CITY           SKY/WX    TMP DP  RH WIND       PRES   REMARKS
BEMIDJI        SUNNY     69  46  44 CALM      30.13F
HALLOCK        SUNNY     72  48  43 S8G16     30.09F
ROSEAU         SUNNY     70  52  52 SW10      30.10F
WARROAD        SUNNY     68  50  52 SW8       30.10F
THIEF RVR FALL SUNNY     66  45  45 CALM      30.12F
CROOKSTON      SUNNY     70  46  43 S5        30.12F
FOSSTON        SUNNY     70  48  46 CALM      30.14F
DETROIT LAKES  SUNNY     70  37  30 SW7       30.16F
MOORHEAD       SUNNY     70  46  43 SW7       30.14F
PARK RAPIDS    SUNNY     71  43  36 W7        30.14F
MAHNOMEN       FAIR      67  44  42 SW3       30.14F
$$
MNZ006-009>011-018-025>026-072100-
   North Central Minnesota

CITY           SKY/WX    TMP DP  RH WIND       PRES   REMARKS
BAUDETTE       SUNNY     71  45  39 NW9       30.10F
FLAG ISLAND    SUNNY     70  54  56 S10G18    30.06F
INTL FALLS     SUNNY     71  45  39 VRB3      30.09F
WASKISH        SUNNY     70  48  46 SW9       30.12F
BIG FORK       SUNNY     72  46  40 S5        30.12F
LONGVILLE      SUNNY     68  43  40 W5        30.14F
GRAND RAPIDS   MOSUNNY   68  43  40 N7        30.13F
CRANE LAKE     SUNNY     66  37  34 N2        30.12F
COOK           SUNNY     68  41  37 CALM      30.11F
WALKER         FAIR      68  43  40 CALM      30.14F
$$
MNZ012-019>021-037-072100-
   Northeast Minnesota

CITY           SKY/WX    TMP DP  RH WIND       PRES   REMARKS
DULUTH         SUNNY     71  45  39 VRB7G20   30.12S
ELY            SUNNY     68  37  32 W7        30.10F
HIBBING        SUNNY     70  41  34 NW7       30.12F
EVELETH        SUNNY     68  39  34 N6        30.12
DULUTH HARBOR    N/A     72  46  40 CALM      30.12S
TWO HARBORS    SUNNY     72  54  53 S12       30.09S
SILVER BAY     SUNNY     70  50  49 S9        30.08F
GRAND MARAIS     N/A     60  49  66 W8        30.08F
G MARAIS ARPRT SUNNY     66  39  37 CALM      30.10F
$$
MNZ029>031-032-039>041-046>048-054>057-064-072100-
   West Central Minnesota

CITY           SKY/WX    TMP DP  RH WIND       PRES   REMARKS
FERGUS FALLS   SUNNY     68  43  40 CALM      30.14F
WHEATON        SUNNY     68  46  45 E5        30.17F
MORRIS         MOSUNNY   70  46  43 SE5       30.15F
ALEXANDRIA     SUNNY     68  44  42 W5        30.17F
ELBOW LAKE     FAIR      68  45  43 SW6       30.15F
WADENA         SUNNY     70  43  37 CALM      30.14F
GLENWOOD       SUNNY     68  43  40 S3        30.16F
APPLETON       PTSUNNY   72  45  37 S6        30.16F
BENSON         MOSUNNY   70  43  37 S6        30.16F
ORTONVILLE     SUNNY     70  45  40 NE3       30.15F
MADISON        MOSUNNY   68  46  45 CALM      30.16F
WILLMAR        FAIR      68  46  45 NE7       30.18S
$$
MNZ033>034-036-042>043-049>051-058-059-072100-
   Central Minnesota

CITY           SKY/WX    TMP DP  RH WIND       PRES   REMARKS
ST CLOUD       MOSUNNY   70  45  40 N7        30.14F
SAUK CENTRE    FAIR      67  46  48 E3        30.16F
PAYNESVILLE    PTSUNNY   65  44  45 CALM      30.17F
AITKIN         SUNNY     70  45  40 CALM      30.12F
PINE RIVER     SUNNY     70  45  40 N7        30.16F
BRAINERD       SUNNY     68  41  37 VRB5      30.15F
STAPLES        SUNNY     70  37  30 W3        30.14F
LONG PRAIRIE   FAIR      66  43  42 CALM      30.16F
LITTLE FALLS   SUNNY     68  41  37 S5        30.15F
LITCHFIELD     SUNNY     70  46  43 CALM      30.16F
BUFFALO        PTSUNNY   69  44  40 NE6       30.16F
MAPLE LAKE     PTSUNNY   67  50  53 NW5       30.16F
$$
MNZ037-044-045-052-053-072100-
   East Central Minnesota

CITY           SKY/WX    TMP DP  RH WIND       PRES   REMARKS
PRINCETON      PTSUNNY   70  46  43 NW3       30.15F
MORA           MOSUNNY   64  43  45 CALM      30.16S
CAMBRIDGE      MOSUNNY   70  50  49 CALM      30.13F
RUSH CITY      MOSUNNY   67  47  48 CALM      30.14F
MOOSE LAKE     MOSUNNY   70  43  37 CALM      30.12F
HINCKLEY       FAIR      70  46  43 CALM      30.14S
CLOQUET        MOSUNNY   70  41  35 W8        30.13S
MCGREGOR       SUNNY     70  43  37 NW7       30.14F
$$
MNZ071>073-080-081-089-090-097-098-072100-
   Southwest Minnesota

CITY           SKY/WX    TMP DP  RH WIND       PRES   REMARKS
MONTEVIDEO     PTSUNNY   72  48  43 SE3       30.18F
GRANITE FALLS  MOSUNNY   66  47  49 CALM      30.18F
CANBY          MOSUNNY   67  47  49 E7        30.18F
MARSHALL       PTSUNNY   66  45  45 NE10        N/A
REDWOOD FALLS  MOSUNNY   68  47  46 CALM      30.17F
OLIVIA         SUNNY     66  45  45 NE5       30.16F
PIPESTONE      MOSUNNY   66  46  48 CALM      30.18F
WINDOM         SUNNY     66  46  48 NE12      30.17F
WORTHINGTON    MOSUNNY   64  48  55 N8G17     30.17F
JACKSON        MOSUNNY   66  50  55 NE12      30.16F
TRACY          SUNNY     67  48  50 NE6       30.18F
SLAYTON        MOSUNNY   65  46  50 CALM      30.19F
$$
MNZ065>067-074>077-082>085-091>093-072100-
   South Central Minnesota

CITY           SKY/WX    TMP DP  RH WIND       PRES   REMARKS
MANKATO        PTSUNNY   66  45  45 NE3       30.16S
NEW ULM        MOSUNNY   66  46  48 NE7       30.16F
ST JAMES         N/A     66  50  55 NE7       30.17F
FAIRMONT       MOSUNNY   64  46  52 NE8       30.15F
GLENCOE        PTSUNNY   68  51  54 N6        30.15F
FARIBAULT      CLOUDY    64  48  55 N7        30.16S
OWATONNA       MOSUNNY   66  48  52 N8G18     30.15S
WASECA         SUNNY     64  46  52 NE10G17   30.16F
ALBERT LEA     PTSUNNY   64  46  52 N5        30.14F
$$
MNZ078>079-086>088-094>096-072100-
   Southeast Minnesota

CITY           SKY/WX    TMP DP  RH WIND       PRES   REMARKS
ROCHESTER      PTSUNNY   66  49  54 N12       30.15F
RED WING       PTSUNNY   70  45  40 N5        30.12F
DODGE CENTER   MOSUNNY   64  48  55 N9        30.14F
WINONA         PTSUNNY   70  48  46 N9        30.12F
AUSTIN         PTSUNNY   66  46  48 N6        30.14S
PRESTON        MOSUNNY   63  47  56 NE8       30.14S
$$
ABBREVIATIONS USED IN REMARKS
   TC - TEMPERATURES IN CELSIUS
  WCI - WIND CHILL INDEX
   HX - HEAT INDEX
  VSB - VISIBILITY
$$


USA.gov is the U.S. government's official web portal to all federal, state and local government web resources and services.